BAW33C EGPH-EGJJ

Flight info

Callsign BAW33C
Flight time N/A
Altitude 37000
Route GOSAM P600 FENIK L612 NAVSO DCT ADZOP DCT EGTOC DCT NOKIN N862 KARNO DCT ALHUP DCT ABWIV DCT PACSE DCT TONQU N862 SKERY
Aircraft A320/M-SDE3FGHIRWY/LB1

Departure

Time N/A
Airport Edinburgh Airport (EGPH)

Arrival

Time 2026-05-03 21:01
Airport Jersey Airport (EGJJ)
Time Latitude Longitude Altitude Speed Heading
2026-05-03 20:15 52.64401 -2.94682 36966 ft 439 kts 184°
2026-05-03 20:15 52.58300 -2.95185 36963 ft 439 kts 184°
2026-05-03 20:16 52.52205 -2.95692 36965 ft 439 kts 184°
2026-05-03 20:16 52.46108 -2.96194 36967 ft 438 kts 184°
2026-05-03 20:17 52.40019 -2.96688 36966 ft 438 kts 184°
2026-05-03 20:17 52.33937 -2.97177 36977 ft 437 kts 184°
2026-05-03 20:18 52.27859 -2.97686 36970 ft 438 kts 184°
2026-05-03 20:18 52.21773 -2.98189 36956 ft 438 kts 184°
2026-05-03 20:19 52.15685 -2.98677 36954 ft 438 kts 184°
2026-05-03 20:19 52.09592 -2.99170 36952 ft 438 kts 184°
2026-05-03 20:20 52.03497 -2.99666 36947 ft 438 kts 184°
2026-05-03 20:20 51.97404 -3.00156 36938 ft 439 kts 184°
2026-05-03 20:21 51.91307 -3.00642 36948 ft 439 kts 184°
2026-05-03 20:21 51.85219 -3.01281 36956 ft 438 kts 187°
2026-05-03 20:22 51.79171 -3.02539 36962 ft 438 kts 189°
2026-05-03 20:22 51.73142 -3.03984 36970 ft 438 kts 189°
2026-05-03 20:23 51.67113 -3.05313 36970 ft 436 kts 188°
2026-05-03 20:23 51.61092 -3.06549 36964 ft 436 kts 188°
2026-05-03 20:24 51.55086 -3.07766 36957 ft 435 kts 188°
2026-05-03 20:24 51.49089 -3.08991 36936 ft 434 kts 188°
2026-05-03 20:25 51.43097 -3.10235 36940 ft 434 kts 188°
2026-05-03 20:25 51.37114 -3.11475 36943 ft 433 kts 188°
2026-05-03 20:26 51.31137 -3.12702 36939 ft 433 kts 188°
2026-05-03 20:26 51.25151 -3.13924 36938 ft 433 kts 188°
2026-05-03 20:27 51.19176 -3.15135 36939 ft 433 kts 188°
2026-05-03 20:27 51.13244 -3.16340 36935 ft 432 kts 188°
2026-05-03 20:27 51.10246 -3.16943 36497 ft 434 kts 188°
2026-05-03 20:28 51.07261 -3.17543 35993 ft 432 kts 188°
2026-05-03 20:28 51.04284 -3.18144 35503 ft 430 kts 188°
2026-05-03 20:28 51.01322 -3.18744 35022 ft 429 kts 188°
2026-05-03 20:28 50.98364 -3.19342 34550 ft 428 kts 188°
2026-05-03 20:29 50.95411 -3.19939 34093 ft 427 kts 188°
2026-05-03 20:29 50.92468 -3.20536 33576 ft 427 kts 188°
2026-05-03 20:29 50.89525 -3.21132 33032 ft 426 kts 188°
2026-05-03 20:29 50.86579 -3.21729 32481 ft 426 kts 187°
2026-05-03 20:30 50.83649 -3.22318 31972 ft 423 kts 187°
2026-05-03 20:30 50.80743 -3.22895 31458 ft 419 kts 187°
2026-05-03 20:30 50.77870 -3.23465 30955 ft 414 kts 187°
2026-05-03 20:30 50.75027 -3.24031 30461 ft 410 kts 187°
2026-05-03 20:31 50.72211 -3.24588 29970 ft 406 kts 187°
2026-05-03 20:31 50.69424 -3.25140 29394 ft 401 kts 187°
2026-05-03 20:31 50.66668 -3.25689 28825 ft 397 kts 188°
2026-05-03 20:31 50.63939 -3.26233 28291 ft 394 kts 188°
2026-05-03 20:32 50.61234 -3.26773 27745 ft 390 kts 187°
2026-05-03 20:32 50.58551 -3.27310 27200 ft 387 kts 188°
2026-05-03 20:32 50.55895 -3.27839 26676 ft 383 kts 188°
2026-05-03 20:32 50.53262 -3.28359 26159 ft 380 kts 188°
2026-05-03 20:33 50.50651 -3.28869 25652 ft 377 kts 188°
2026-05-03 20:33 50.48062 -3.29377 25153 ft 374 kts 188°
2026-05-03 20:33 50.45492 -3.29883 24666 ft 371 kts 188°
2026-05-03 20:33 50.42938 -3.30385 24184 ft 369 kts 188°
2026-05-03 20:34 50.40390 -3.30825 23709 ft 367 kts 184°
2026-05-03 20:34 50.37882 -3.30756 23199 ft 367 kts 176°
2026-05-03 20:34 50.35363 -3.30078 22642 ft 368 kts 169°
2026-05-03 20:34 50.32878 -3.29161 22096 ft 366 kts 169°
2026-05-03 20:35 50.30431 -3.28268 21560 ft 365 kts 169°
2026-05-03 20:35 50.27956 -3.27372 21047 ft 364 kts 169°
2026-05-03 20:35 50.25491 -3.26482 20527 ft 363 kts 169°
2026-05-03 20:35 50.23035 -3.25593 20019 ft 362 kts 169°
2026-05-03 20:36 50.20590 -3.24709 19519 ft 360 kts 169°
2026-05-03 20:36 50.18164 -3.23834 19136 ft 355 kts 169°
2026-05-03 20:36 50.15775 -3.22973 18774 ft 349 kts 169°
2026-05-03 20:36 50.13428 -3.22128 18406 ft 344 kts 169°
2026-05-03 20:37 50.11118 -3.21292 18021 ft 339 kts 169°
2026-05-03 20:37 50.08827 -3.20468 17618 ft 337 kts 169°
2026-05-03 20:37 50.06552 -3.19653 17214 ft 335 kts 169°
2026-05-03 20:37 50.04287 -3.18838 16796 ft 334 kts 168°
2026-05-03 20:38 50.02065 -3.17766 16404 ft 334 kts 161°
2026-05-03 20:38 49.99961 -3.16224 16021 ft 335 kts 153°
2026-05-03 20:38 49.98020 -3.14222 15632 ft 336 kts 144°
2026-05-03 20:38 49.96280 -3.11820 15258 ft 333 kts 139°
2026-05-03 20:39 49.94620 -3.09344 14893 ft 329 kts 139°
2026-05-03 20:39 49.92983 -3.06924 14637 ft 321 kts 139°
2026-05-03 20:39 49.91378 -3.04560 14392 ft 314 kts 139°
2026-05-03 20:39 49.89808 -3.02251 14152 ft 308 kts 139°
2026-05-03 20:40 49.88270 -2.99987 13909 ft 303 kts 139°
2026-05-03 20:40 49.86754 -2.97762 13662 ft 297 kts 139°
2026-05-03 20:40 49.85265 -2.95580 13391 ft 292 kts 139°
2026-05-03 20:40 49.83797 -2.93430 13123 ft 288 kts 139°
2026-05-03 20:41 49.82354 -2.91317 12861 ft 283 kts 139°
2026-05-03 20:41 49.80931 -2.89237 12598 ft 279 kts 139°
2026-05-03 20:41 49.79530 -2.87186 12337 ft 275 kts 139°
2026-05-03 20:41 49.78147 -2.85164 12076 ft 272 kts 139°
2026-05-03 20:42 49.76781 -2.83167 11824 ft 268 kts 139°
2026-05-03 20:42 49.75421 -2.81223 11569 ft 264 kts 144°
2026-05-03 20:42 49.73809 -2.80049 11320 ft 255 kts 173°
2026-05-03 20:42 49.72087 -2.80265 11069 ft 249 kts 201°
2026-05-03 20:43 49.70696 -2.81781 10812 ft 247 kts 231°
2026-05-03 20:43 49.70007 -2.84183 10564 ft 249 kts 261°
2026-05-03 20:43 49.70213 -2.86883 10319 ft 263 kts 290°
2026-05-03 20:43 49.71284 -2.89188 10080 ft 271 kts 319°
2026-05-03 20:44 49.72959 -2.90449 9945 ft 276 kts 349°
2026-05-03 20:44 49.74892 -2.90339 9941 ft 278 kts 18°
2026-05-03 20:44 49.76549 -2.88877 9943 ft 275 kts 47°
2026-05-03 20:44 49.77564 -2.86430 9948 ft 270 kts 76°
2026-05-03 20:45 49.77707 -2.83599 9944 ft 263 kts 105°
2026-05-03 20:45 49.76968 -2.81077 9946 ft 257 kts 132°
2026-05-03 20:45 49.75755 -2.79100 9946 ft 257 kts 139°
2026-05-03 20:45 49.74451 -2.77198 9855 ft 258 kts 139°
2026-05-03 20:46 49.73139 -2.75315 9560 ft 257 kts 139°
2026-05-03 20:46 49.71830 -2.73446 9243 ft 256 kts 139°
2026-05-03 20:46 49.70524 -2.71581 8917 ft 255 kts 140°
2026-05-03 20:46 49.69233 -2.69712 8588 ft 254 kts 140°
2026-05-03 20:47 49.67950 -2.67839 8278 ft 254 kts 139°
2026-05-03 20:47 49.66670 -2.65970 8026 ft 253 kts 139°
2026-05-03 20:47 49.65391 -2.64111 7769 ft 252 kts 139°
2026-05-03 20:47 49.64114 -2.62262 7517 ft 251 kts 139°
2026-05-03 20:48 49.62838 -2.60424 7262 ft 251 kts 139°
2026-05-03 20:48 49.61564 -2.58595 7020 ft 250 kts 139°
2026-05-03 20:48 49.60289 -2.56772 6775 ft 249 kts 139°
2026-05-03 20:48 49.59019 -2.54962 6531 ft 248 kts 139°
2026-05-03 20:49 49.57750 -2.53161 6315 ft 248 kts 140°
2026-05-03 20:49 49.56481 -2.51367 6105 ft 247 kts 140°
2026-05-03 20:49 49.55214 -2.49581 5897 ft 247 kts 140°
2026-05-03 20:49 49.53947 -2.47800 5688 ft 246 kts 140°
2026-05-03 20:50 49.52678 -2.46023 5483 ft 246 kts 140°
2026-05-03 20:50 49.51412 -2.44257 5288 ft 246 kts 140°
2026-05-03 20:50 49.50145 -2.42493 5082 ft 245 kts 140°
2026-05-03 20:50 49.48880 -2.40733 4874 ft 245 kts 140°
2026-05-03 20:51 49.47617 -2.38975 4717 ft 245 kts 140°
2026-05-03 20:51 49.46353 -2.37219 4562 ft 245 kts 140°
2026-05-03 20:51 49.45091 -2.35468 4406 ft 244 kts 140°
2026-05-03 20:51 49.43830 -2.33720 4251 ft 244 kts 140°
2026-05-03 20:52 49.42569 -2.31972 4111 ft 244 kts 140°
2026-05-03 20:52 49.41313 -2.30230 4010 ft 243 kts 140°
2026-05-03 20:52 49.40052 -2.28481 3915 ft 244 kts 140°
2026-05-03 20:52 49.38801 -2.26747 3766 ft 239 kts 140°
2026-05-03 20:53 49.37589 -2.25064 3614 ft 230 kts 140°
2026-05-03 20:53 49.36431 -2.23436 3462 ft 222 kts 136°
2026-05-03 20:53 49.35628 -2.21473 3311 ft 216 kts 114°
2026-05-03 20:53 49.35089 -2.19333 3169 ft 214 kts 111°
2026-05-03 20:54 49.34587 -2.17187 3058 ft 214 kts 111°
2026-05-03 20:54 49.33588 -2.12895 3015 ft 214 kts 111°
2026-05-03 20:54 49.33088 -2.10745 3021 ft 214 kts 111°
2026-05-03 20:55 49.32589 -2.08595 3024 ft 214 kts 111°
2026-05-03 20:55 49.32090 -2.06452 3023 ft 214 kts 111°
2026-05-03 20:55 49.31590 -2.04304 3019 ft 214 kts 111°
2026-05-03 20:55 49.31090 -2.02161 3020 ft 214 kts 111°
2026-05-03 20:56 49.30590 -2.00016 3019 ft 214 kts 111°
2026-05-03 20:56 49.30088 -1.97870 3015 ft 214 kts 111°
2026-05-03 20:56 49.29411 -1.95899 3014 ft 203 kts 134°
2026-05-03 20:56 49.28312 -1.94678 2928 ft 192 kts 161°
2026-05-03 20:57 49.27026 -1.94384 2816 ft 186 kts 187°
2026-05-03 20:57 49.26203 -1.94685 2711 ft 183 kts 204°
2026-05-03 20:57 49.25172 -1.95784 2549 ft 181 kts 229°
2026-05-03 20:57 49.24534 -1.97379 2395 ft 172 kts 244°
2026-05-03 20:58 49.24003 -1.98978 2234 ft 165 kts 243°
2026-05-03 20:58 49.23484 -2.00524 2106 ft 162 kts 243°
2026-05-03 20:58 49.22970 -2.02053 2031 ft 161 kts 243°
2026-05-03 20:58 49.22459 -2.03572 2019 ft 159 kts 243°
2026-05-03 20:59 49.22075 -2.05056 2011 ft 146 kts 259°
2026-05-03 20:59 49.21905 -2.06562 1860 ft 142 kts 261°
2026-05-03 20:59 49.21763 -2.08047 1654 ft 141 kts 261°
2026-05-03 20:59 49.21636 -2.09525 1460 ft 140 kts 262°
2026-05-03 21:00 49.21512 -2.10999 1268 ft 139 kts 262°
2026-05-03 21:00 49.21430 -2.11970 1137 ft 139 kts 261°
2026-05-03 21:00 49.21271 -2.13924 911 ft 138 kts 263°
2026-05-03 21:00 49.21146 -2.15373 738 ft 137 kts 263°
2026-05-03 21:01 49.21029 -2.16817 543 ft 137 kts 263°
2026-05-03 21:01 49.20906 -2.18260 356 ft 137 kts 262°
2026-05-03 21:01 49.20795 -2.19596 285 ft 99 kts 262°
2026-05-03 21:01 49.20743 -2.20223 282 ft 36 kts 263°
2026-05-03 21:02 49.20716 -2.20521 283 ft 19 kts 263°
2026-05-03 21:02 49.20704 -2.20663 283 ft 9 kts 258°
2026-05-03 21:02 49.20655 -2.20701 284 ft 9 kts 160°
2026-05-03 21:02 49.20628 -2.20624 284 ft 8 kts 96°
2026-05-03 21:03 49.20623 -2.20544 284 ft 9 kts 98°
2026-05-03 21:03 49.20607 -2.20445 284 ft 10 kts 106°
2026-05-03 21:03 49.20586 -2.20333 284 ft 11 kts 107°
2026-05-03 21:03 49.20564 -2.20219 284 ft 12 kts 105°
2026-05-03 21:04 49.20542 -2.20111 284 ft 9 kts 108°
2026-05-03 21:04 49.20523 -2.20022 284 ft 9 kts 108°
2026-05-03 21:04 49.20517 -2.19954 284 ft 7 kts 77°
2026-05-03 21:04 49.20561 -2.19934 284 ft 8 kts 355°
2026-05-03 21:05 49.20604 -2.19889 284 ft 8 kts 77°
2026-05-03 21:05 49.20610 -2.19804 284 ft 8 kts 84°
2026-05-03 21:05 49.20615 -2.19741 284 ft 3 kts 82°
2026-05-03 21:05 49.20606 -2.19710 284 ft 2 kts 136°
2026-05-03 21:06 49.20589 -2.19704 284 ft 2 kts 172°
2026-05-03 21:06 49.20575 -2.19701 284 ft 1 kts 173°
2026-05-03 21:06 49.20565 -2.19699 284 ft 1 kts 174°
2026-05-03 21:06 49.20559 -2.19699 284 ft 0 kts 174°